EHI
12 12 11 10 9 9 9 7 6 5 4 3 3 4 3 2 2 2 2 1 0 0 0 0 0 0 0 0 0 0 0 0 0 0 0 0 0 0
12 12 12 10 9 8 8 7 6 5 4 2 3 4 5 4 4 3 2 2 1 0 0 0 0 0 0 0 0 0 0 0 0 0 0 0 0 0
13 13 13 12 10 9 8 7 6 5 4 2 2 4 6 9 10 7 4 3 2 1 0 0 0 0 0 0 0 0 0 0 0 0 0 0 0 0
15 16 15 14 12 10 8 5 4 4 4 2 3 4 7 10 12 9 5 3 3 1 0 0 0 0 0 0 0 0 0 0 0 0 0 0 0 0
18 18 17 15 13 10 7 5 3 3 4 4 4 5 7 9 10 8 5 4 3 1 0 0 0 0 0 0 0 0 0 0 0 0 0 0 0 0
19 18 16 14 12 9 7 6 4 4 4 4 5 6 7 8 8 7 6 5 3 1 0 1 1 1 0 0 0 0 0 0 0 0 0 0 0 0
19 16 13 11 9 7 5 5 5 5 5 5 5 7 8 9 9 8 6 5 4 2 1 2 3 2 1 0 0 0 0 0 0 0 0 0 0 0
19 16 12 9 6 4 3 2 3 5 5 5 6 8 10 12 11 8 6 6 4 3 4 5 4 3 1 0 0 0 0 0 0 0 0 0 0 0
19 16 13 9 7 6 5 4 4 4 3 4 6 7 9 12 11 8 7 7 6 6 6 6 5 3 1 0 0 0 0 0 0 0 0 0 0 0
16 15 13 11 9 9 9 9 9 6 2 2 5 5 6 7 8 7 7 7 8 9 8 7 5 3 1 0 0 0 0 0 0 0 0 0 0 0
12 12 11 10 8 7 10 12 12 8 4 2 3 3 3 4 5 7 7 7 7 8 9 8 6 3 2 0 0 0 0 0 0 0 0 0 0 0
9 9 8 7 5 4 7 9 10 8 5 3 3 2 2 2 3 4 6 6 7 7 7 7 6 3 1 0 0 0 0 0 0 0 0 0 0 0
8 7 6 4 2 1 3 5 5 5 5 5 4 3 3 3 3 3 5 6 6 6 6 7 7 4 2 0 0 0 0 0 0 0 0 0 0 0
9 7 4 2 1 0 0 1 1 2 4 6 5 4 4 4 4 5 5 5 6 5 6 7 7 6 3 1 1 1 1 0 0 0 0 0 0 0
6 4 2 1 0 0 0 0 0 2 4 5 4 4 4 5 5 5 5 4 4 4 4 4 6 6 4 2 2 3 2 1 0 0 0 0 0 1
2 1 0 0 0 0 1 1 1 2 4 4 4 4 5 5 4 4 3 2 3 3 1 1 3 4 4 3 4 4 3 2 1 1 1 1 1 2
0 1 1 2 1 1 2 3 2 2 3 4 5 5 5 4 3 3 2 2 2 2 1 1 2 3 4 3 3 2 2 2 1 2 2 2 3 3
1 2 2 2 1 1 3 4 4 3 3 4 5 5 4 3 2 2 2 1 1 1 1 2 2 3 2 1 1 0 1 1 1 3 3 3 3 3
1 2 2 1 1 1 3 4 4 3 3 3 4 3 3 2 2 1 1 0 0 1 2 3 3 2 1 0 0 0 0 0 1 2 2 2 2 2
0 1 1 0 0 0 2 3 3 3 3 3 3 3 2 1 1 1 0 0 0 1 2 2 2 1 0 0 0 0 0 0 1 1 1 1 1 1
0 0 0 0 0 0 0 1 2 3 3 3 3 3 2 1 0 0 0 0 0 0 1 1 1 1 0 0 0 0 0 0 0 0 0 0 0 0
0 0 0 0 1 1 1 0 1 2 3 3 3 4 4 2 1 0 0 0 0 0 0 0 1 1 1 0 0 0 0 0 0 0 0 0 0 0
0 0 0 0 1 2 1 0 0 1 3 3 4 5 4 3 2 1 0 0 0 0 0 0 1 1 1 0 0 0 0 0 0 0 0 0 0 0
Wind_Speed
3 3 4 3 3 3 3 4 5 5 4 2 3 2 3 3 2 4 4 3 5 5 5 5 6 6 6 6 8 8 8 8 8 8 8 8 9 10
3 3 4 4 3 3 3 4 4 5 5 3 3 3 3 4 3 4 5 4 6 6 6 6 6 6 6 6 7 8 8 8 9 9 8 8 9 9
4 3 4 4 4 4 3 4 4 4 5 5 3 2 3 5 4 4 5 5 4 6 6 6 6 6 6 6 6 7 8 8 8 9 8 8 8 8
4 4 5 4 4 4 4 4 4 4 6 7 5 4 4 4 4 6 5 4 4 5 7 6 6 6 6 6 6 6 6 7 7 7 7 8 8 8
4 4 4 4 4 4 5 4 4 5 5 6 6 4 4 3 4 5 5 4 5 4 7 7 6 6 6 6 6 6 5 6 6 6 6 7 7 8
4 4 4 4 4 5 5 4 5 5 5 5 5 4 4 3 4 4 4 3 4 4 3 4 6 8 7 7 7 6 6 5 6 6 7 7 7 7
4 4 4 4 4 5 5 4 4 5 5 5 5 4 4 3 4 4 4 4 4 4 4 4 4 5 6 8 7 6 6 6 6 6 7 7 7 7
5 5 5 5 5 6 6 6 7 7 6 6 5 5 5 5 4 5 5 5 4 2 4 5 4 4 4 3 4 6 6 6 6 6 6 6 6 6
5 5 4 3 4 4 6 8 8 9 8 8 7 7 7 4 5 6 5 6 6 4 4 5 4 4 4 2 6 6 7 7 7 7 7 6 6 7
5 5 5 4 4 5 6 6 6 5 7 7 6 7 6 5 6 7 7 7 7 5 4 5 4 4 3 2 6 7 8 8 7 7 7 7 7 7
5 5 5 5 3 5 7 6 6 6 6 6 6 7 6 7 7 6 6 6 6 4 3 5 4 4 4 4 5 9 9 8 8 8 8 7 7 7
4 4 4 5 4 5 7 6 6 6 6 5 7 8 8 8 9 8 7 6 6 5 2 4 4 3 4 3 3 4 5 7 8 8 8 8 7 6
4 4 2 3 5 6 8 6 6 7 7 7 6 6 6 5 6 6 6 6 6 5 3 3 4 4 4 4 3 3 2 3 4 5 7 8 8 6
5 4 2 2 5 7 6 5 7 8 6 5 5 5 5 4 4 4 5 6 6 7 5 5 5 5 5 5 4 2 3 2 2 2 3 6 7 7
5 4 5 5 7 7 8 8 8 6 6 6 5 5 4 3 4 3 4 5 6 6 5 5 6 5 5 5 4 3 3 2 2 2 2 3 3 4
5 4 7 8 8 6 5 6 6 5 5 5 5 5 4 3 4 4 4 4 4 4 4 5 5 6 6 5 5 4 3 2 2 2 2 3 3 3
5 5 4 4 4 4 4 3 4 4 4 5 5 4 4 4 4 4 3 4 5 4 3 3 4 4 5 5 4 4 3 2 2 1 2 3 2 2
6 5 4 4 4 4 4 4 3 3 3 4 4 4 4 4 4 3 3 4 4 4 3 3 3 3 4 3 3 4 3 2 1 1 3 3 3 2
6 5 4 4 4 4 4 4 4 3 3 4 4 4 4 4 4 4 3 4 4 3 3 2 3 4 5 4 1 2 3 2 2 2 3 3 3 2
5 4 4 4 4 4 4 4 4 3 3 3 3 4 4 4 4 4 3 4 4 3 3 3 4 4 5 3 2 1 1 2 2 2 2 2 1 0
4 4 4 4 4 4 3 3 4 3 3 3 3 4 4 4 4 4 3 3 4 4 4 3 2 4 4 2 2 1 1 2 1 1 2 2 2 2
4 4 4 4 4 4 4 4 4 3 3 3 3 3 4 3 4 4 4 4 4 3 3 2 1 2 3 3 2 2 1 2 3 4 3 2 2 2
4 4 4 4 4 3 3 4 4 3 3 3 3 3 3 3 3 4 4 3 3 3 2 1 1 2 2 2 2 2 2 2 1 1 2 4 5 4
Wind_Direction
266 256 266 270 264 271 272 271 276 280 277 247 256 248 260 257 257 258 263 219 220 235 242 249 251 252 255 252 241 232 225 221 215 215 217 222 228 228
268 276 276 275 276 269 269 269 270 277 283 289 282 293 300 285 234 260 259 217 217 224 232 239 245 247 248 249 239 228 222 219 216 214 216 221 225 224
261 254 259 275 277 274 266 264 264 268 272 281 271 270 277 282 281 271 259 255 227 198 215 230 239 242 245 241 237 229 223 222 221 217 216 221 225 223
258 259 260 259 261 272 275 273 272 270 270 281 283 269 260 264 271 274 271 265 260 180 196 216 227 234 236 234 229 227 224 220 217 215 213 219 224 227
256 255 258 260 260 267 267 270 271 263 261 269 274 277 270 267 271 268 270 273 267 200 191 199 210 221 225 222 219 219 219 214 209 211 216 222 227 230
259 259 258 254 254 261 258 260 269 273 268 266 271 271 263 256 259 268 271 261 269 269 247 224 204 209 213 213 212 212 213 212 213 212 215 222 227 230
258 260 255 252 272 271 279 279 274 271 272 269 271 273 277 273 268 272 274 273 255 263 266 253 229 229 208 205 202 204 209 210 215 219 221 222 224 227
258 258 250 229 237 242 260 275 278 272 278 280 278 279 276 277 282 276 278 279 274 255 267 265 254 252 240 221 175 186 201 211 217 220 221 224 224 224
258 261 268 258 244 250 240 241 244 248 256 269 279 282 282 281 279 274 274 278 283 282 268 268 256 251 242 191 163 185 198 209 215 218 220 222 223 226
253 250 259 269 268 272 262 254 253 248 249 253 267 274 279 284 270 269 272 265 261 256 258 267 263 264 262 227 170 188 202 211 217 220 220 221 225 228
252 250 253 255 263 272 260 260 264 261 240 238 255 264 273 269 271 269 263 266 267 259 242 266 275 277 264 238 188 189 204 206 208 212 214 215 220 227
250 243 240 251 249 253 260 263 265 270 273 252 239 239 242 238 235 253 263 264 271 267 233 259 270 276 269 245 237 207 205 198 201 206 207 207 209 231
269 263 249 217 236 244 258 267 275 284 273 260 250 243 238 241 237 239 252 264 270 269 264 254 267 264 266 270 261 251 236 226 211 205 200 197 202 227
278 280 292 235 245 244 248 263 269 270 267 262 260 255 252 252 253 255 251 256 264 269 273 273 272 268 269 270 267 257 244 234 231 226 216 186 199 213
282 292 276 251 252 237 228 237 245 252 261 263 264 263 268 272 270 255 249 248 250 253 252 256 267 270 265 266 267 263 264 247 226 223 218 211 211 210
265 259 237 234 243 253 245 232 241 251 261 263 269 270 265 254 253 260 260 253 247 238 235 248 258 262 266 266 263 261 258 251 237 238 238 230 225 227
288 270 269 261 255 251 248 250 248 244 249 262 269 269 263 259 260 262 262 260 258 257 249 234 232 238 256 271 261 259 258 253 242 241 254 250 238 228
274 271 271 268 265 264 259 248 243 248 254 259 262 261 263 260 260 261 257 259 259 256 263 263 247 243 242 240 253 255 252 254 250 234 254 253 248 237
261 271 274 274 274 275 272 266 259 252 259 260 262 266 265 263 262 260 258 259 262 263 259 261 259 252 257 257 205 231 266 262 248 245 256 264 259 250
271 281 282 279 278 276 275 276 276 267 259 269 271 269 264 262 264 262 259 261 262 257 251 249 252 260 272 281 282 244 216 259 259 256 262 272 283 140
279 278 280 280 282 284 283 279 278 277 273 270 271 273 266 257 256 260 259 248 255 255 250 253 277 277 272 244 228 221 148 114 16 283 271 262 255 246
283 282 284 284 280 281 281 275 270 269 271 268 273 272 271 267 259 257 259 250 243 250 256 262 220 249 252 242 236 219 201 135 102 86 52 353 292 274
280 281 278 277 275 274 279 280 277 274 275 280 280 280 277 273 270 265 258 252 249 244 247 258 259 258 255 237 228 203 189 186 169 112 77 67 95 107